This is the latest recevied weather packets stored in our database for station/object OK2JV-13. If no packets are shown the sender has not sent any weather packets the latest 10 day(s).
| Time | Temp. | Humidity | Pressure | Rain* | Wind** | Luminosity | Snow |
|---|---|---|---|---|---|---|---|
| 1787963705 | 14.44° C | 90% | 1011.8 hPa | - | - | - | - |
| 1787963099 | 14.44° C | 89% | 1012 hPa | - | - | - | - |
| 1787962496 | 15° C | 87% | 1012.1 hPa | - | - | - | - |
| 1787961892 | 15° C | 85% | 1011.9 hPa | - | - | - | - |
| 1787961288 | 15° C | 84% | 1011.6 hPa | - | - | - | - |
| 1787960684 | 15° C | 83% | 1011.5 hPa | - | - | - | - |
| 1787960080 | 15.56° C | 81% | 1011.6 hPa | - | - | - | - |
| 1787959476 | 16.11° C | 80% | 1011.8 hPa | - | - | - | - |
| 1787958873 | 17.22° C | 76% | 1011.5 hPa | - | - | - | - |
| 1787958268 | 17.78° C | 67% | 1011.4 hPa | - | - | - | - |
| 1787957664 | 17.78° C | 66% | 1011.3 hPa | - | - | - | - |
| 1787957060 | 17.78° C | 67% | 1011.1 hPa | - | - | - | - |
| 1787956456 | 17.78° C | 67% | 1011 hPa | - | - | - | - |
| 1787955853 | 17.78° C | 68% | 1011.3 hPa | - | - | - | - |
| 1787955247 | 17.78° C | 69% | 1011.4 hPa | - | - | - | - |
| 1787954643 | 17.78° C | 67% | 1011.2 hPa | - | - | - | - |
| 1787954038 | 18.33° C | 67% | 1011.1 hPa | - | - | - | - |
| 1787953435 | 18.33° C | 67% | 1010.9 hPa | - | - | - | - |
| 1787952833 | 18.33° C | 67% | 1010.9 hPa | - | - | - | - |
| 1787952227 | 18.89° C | 68% | 1010.4 hPa | - | - | - | - |
| 1787951623 | 19.44° C | 67% | 1011 hPa | - | - | - | - |
| 1787951024 | 20° C | 63% | 1011.1 hPa | - | - | - | - |
| 1787950415 | 20.56° C | 62% | 1011.7 hPa | - | - | - | - |
| 1787949811 | 21.67° C | 59% | 1012.2 hPa | - | - | - | - |
| 1787949205 | 21.67° C | 51% | 1012.6 hPa | - | - | - | - |
* Rain since midnight (hover to see other rain measurements)
** Current wind speed in m/s (hover to see current wind gust speed)